Location: Unspecified
(41.5000°N, 0.0000°E)
Time: 05:54:29
(UTC+00:00)

Vanguard 1 - Pass Details

Date: 18 June 2019
Orbit: 653 x 3830 km, 34.3° (Epoch: 15 July)

Event Time Altitude Azimuth Distance (km) Brightness Sun altitude
Exits shadow 02:10:47 20° 194° (SSW) 5,019 13.1 -18.5°
Maximum altitude 02:19:24 30° 155° (SSE) 3,616 12.6 -17.6°
Drops below altitude 10° 02:28:38 10° 99° (E) 3,977 13.5 -16.7°
Sets 02:31:41 0° 88° (E) 4,593 14.1 -16.3°
